Total_Precipitation_Accumulation
1.79 1.79 1.41 0.89 0.71 0.63 0.65 0.63 0.55 0.56 0.53 0.62 0.61 0.58 0.54 0.54 0.62 0.67 0.67 0.72 0.85 1.04 1.26 1.42 1.76 2.03 2.28 2.60 2.94 3.22 3.37 3.53 3.72 3.91 4.06 4.03 4.00 3.86 3.64 3.43 3.30 3.22 2.91 2.89
1.75 1.37 0.78 0.57 0.64 0.70 0.75 0.77 0.59 0.55 0.56 0.69 0.72 0.67 0.59 0.62 0.70 0.69 0.68 0.70 0.75 0.91 1.13 1.34 1.61 1.84 2.09 2.37 2.59 3.04 3.29 3.34 3.38 3.42 3.65 3.89 4.14 4.18 4.06 3.86 3.61 3.50 3.29 3.08
1.36 0.90 0.66 0.71 0.82 0.89 0.81 0.73 0.62 0.65 0.69 0.78 0.83 0.87 0.72 0.72 0.65 0.66 0.70 0.75 0.78 0.82 0.98 1.18 1.48 1.71 1.91 2.19 2.38 2.65 2.98 3.21 3.30 3.39 3.73 4.00 4.23 4.18 4.03 3.86 3.65 3.50 3.44 3.25
1.18 0.74 0.78 0.89 0.88 0.87 0.86 0.53 0.58 0.73 0.98 1.10 0.96 1.16 0.91 0.78 0.63 0.63 0.69 0.75 0.81 0.85 0.96 1.09 1.26 1.54 1.78 1.95 2.18 2.43 2.72 3.04 3.29 3.45 3.58 3.64 3.69 3.69 3.57 3.56 3.63 3.53 3.33 3.28
1.25 0.83 0.89 1.00 0.78 0.78 0.75 0.50 0.59 0.82 1.09 1.19 0.85 0.98 0.89 0.63 0.63 0.64 0.66 0.70 0.75 0.83 0.91 0.96 1.07 1.31 1.55 1.77 2.00 2.28 2.51 2.78 3.14 3.41 3.38 3.46 3.41 3.33 3.44 3.44 3.46 3.50 3.37 3.24
0.93 0.81 0.99 0.94 0.67 0.74 0.78 0.84 0.97 1.10 1.59 1.69 0.75 0.78 0.88 0.76 0.79 0.71 0.66 0.67 0.70 0.78 0.86 0.92 0.98 1.17 1.39 1.62 1.78 2.08 2.38 2.55 2.82 3.21 3.25 3.16 3.04 2.94 3.14 3.30 3.30 3.39 3.31 3.11
1.35 1.09 0.95 0.91 0.96 1.02 1.12 1.64 2.23 2.28 2.22 1.36 0.52 0.59 0.86 0.73 0.72 0.79 0.72 0.65 0.64 0.68 0.76 0.81 0.83 0.99 1.26 1.50 1.66 1.85 2.17 2.38 2.53 2.83 3.04 3.07 2.97 2.84 2.82 2.95 3.13 3.26 3.25 2.91
1.48 1.35 0.96 0.99 1.16 1.32 1.21 1.47 1.81 1.65 1.14 0.68 0.49 0.66 0.77 0.60 0.56 0.59 0.59 0.56 0.56 0.62 0.69 0.75 0.79 0.89 1.09 1.34 1.55 1.69 1.88 2.15 2.29 2.46 2.68 2.92 2.86 2.78 2.67 2.62 2.82 3.00 3.10 2.92
1.20 1.13 0.69 0.73 0.78 0.92 1.20 1.25 1.10 1.49 1.04 0.75 0.69 0.70 0.60 0.42 0.43 0.46 0.50 0.49 0.53 0.61 0.65 0.75 0.79 0.86 0.97 1.15 1.38 1.55 1.67 1.91 2.06 2.20 2.43 2.67 2.65 2.53 2.44 2.37 2.44 2.60 2.75 2.75
1.18 1.24 0.73 0.70 0.93 0.98 1.04 1.07 1.36 2.07 1.75 1.06 0.68 0.60 0.69 0.53 0.51 0.50 0.53 0.56 0.59 0.61 0.61 0.67 0.77 0.85 0.93 1.07 1.22 1.42 1.60 1.80 1.92 2.02 2.21 2.36 2.40 2.35 2.25 2.19 2.18 2.24 2.31 2.37
1.04 1.40 1.01 0.94 1.20 1.02 1.02 1.25 1.52 1.69 1.49 1.33 0.89 0.77 0.73 0.63 0.59 0.58 0.59 0.61 0.62 0.62 0.64 0.66 0.73 0.84 0.94 1.07 1.21 1.36 1.52 1.68 1.83 1.92 1.97 2.03 2.11 2.16 2.10 2.07 1.98 1.95 2.03 2.12
0.94 1.47 1.17 0.78 0.70 0.61 0.83 1.02 1.30 1.84 1.43 1.07 0.98 0.85 0.57 0.51 0.55 0.57 0.58 0.62 0.60 0.58 0.61 0.66 0.71 0.82 0.94 1.05 1.20 1.37 1.45 1.62 1.72 1.77 1.83 1.83 1.89 1.98 1.97 1.83 1.77 1.74 1.74 1.86
1.28 1.86 1.65 1.12 1.02 0.93 0.98 0.85 0.99 1.47 1.80 1.38 1.17 0.88 0.51 0.40 0.45 0.51 0.56 0.61 0.59 0.57 0.57 0.59 0.66 0.77 0.91 1.02 1.13 1.27 1.34 1.47 1.63 1.65 1.73 1.75 1.79 1.89 1.95 1.82 1.68 1.64 1.59 1.61
1.71 1.92 1.53 1.30 1.08 1.06 1.01 0.76 0.85 1.68 2.17 1.29 0.81 0.69 0.54 0.50 0.53 0.56 0.61 0.65 0.63 0.59 0.59 0.60 0.66 0.74 0.82 0.93 1.05 1.14 1.20 1.29 1.40 1.50 1.60 1.68 1.69 1.76 1.89 1.88 1.68 1.61 1.57 1.54
1.51 1.71 1.00 0.70 0.59 0.74 0.82 0.74 0.82 1.27 1.27 1.22 0.76 0.64 0.71 0.71 0.74 0.72 0.68 0.64 0.60 0.58 0.58 0.61 0.68 0.75 0.76 0.81 0.92 1.01 1.03 1.11 1.20 1.27 1.38 1.56 1.63 1.68 1.80 1.87 1.84 1.75 1.68 1.61
1.14 1.46 1.02 0.74 0.50 0.60 0.70 0.65 0.70 0.81 0.81 0.84 0.69 0.74 0.68 0.67 0.63 0.64 0.66 0.63 0.65 0.62 0.60 0.58 0.64 0.71 0.73 0.77 0.87 0.95 0.98 1.01 1.08 1.16 1.22 1.34 1.42 1.54 1.69 1.81 1.78 1.77 1.78 1.75
0.96 1.23 1.45 1.03 0.56 0.79 1.01 0.85 0.80 0.79 0.71 0.72 0.84 0.78 0.59 0.58 0.61 0.67 0.66 0.62 0.64 0.61 0.56 0.54 0.58 0.67 0.73 0.75 0.78 0.86 0.95 0.98 1.04 1.13 1.18 1.23 1.28 1.32 1.46 1.61 1.77 1.83 1.84 1.83
0.83 1.12 1.70 1.29 0.92 1.23 0.97 0.67 0.65 0.69 0.70 0.69 0.71 0.61 0.58 0.62 0.64 0.66 0.66 0.61 0.55 0.53 0.50 0.48 0.53 0.59 0.69 0.74 0.72 0.74 0.79 0.87 0.95 1.03 1.06 1.12 1.23 1.29 1.36 1.53 1.73 1.89 1.98 1.99
0.52 1.11 1.84 1.59 1.13 0.74 0.48 0.40 0.56 0.69 0.73 0.65 0.58 0.49 0.45 0.47 0.50 0.57 0.59 0.59 0.56 0.55 0.53 0.49 0.51 0.55 0.60 0.67 0.70 0.70 0.74 0.82 0.89 0.98 1.01 1.04 1.15 1.33 1.47 1.62 1.78 1.90 2.05 2.12
0.51 1.00 1.87 1.70 1.41 0.82 0.49 0.27 0.32 0.57 0.85 0.54 0.47 0.50 0.48 0.46 0.61 0.60 0.54 0.54 0.51 0.48 0.48 0.49 0.49 0.49 0.52 0.60 0.65 0.69 0.75 0.82 0.93 1.05 1.13 1.17 1.25 1.44 1.57 1.69 1.76 1.78 1.84 1.92
0.74 1.20 1.57 1.37 1.35 0.76 0.44 0.24 0.26 0.80 0.98 0.49 0.45 0.52 0.55 0.67 0.78 0.65 0.53 0.52 0.49 0.47 0.48 0.49 0.51 0.56 0.61 0.67 0.72 0.81 0.85 0.99 1.10 1.15 1.23 1.32 1.35 1.39 1.43 1.48 1.48 1.43 1.39 1.41
0.67 0.94 1.00 1.05 1.42 0.96 0.44 0.36 0.71 0.95 0.61 0.51 0.46 0.47 0.53 0.57 0.55 0.52 0.49 0.48 0.47 0.46 0.47 0.51 0.57 0.68 0.74 0.80 0.92 0.98 1.01 1.08 1.14 1.20 1.22 1.26 1.28 1.31 1.30 1.28 1.24 1.15 1.12 1.13
0.64 0.86 0.97 1.00 1.06 0.86 0.65 0.72 0.78 0.68 0.62 0.55 0.55 0.51 0.52 0.54 0.53 0.51 0.51 0.48 0.46 0.45 0.47 0.52 0.57 0.61 0.67 0.74 0.85 0.94 0.94 0.93 0.99 1.06 1.11 1.12 1.10 1.12 1.14 1.12 1.11 1.09 1.05 1.05
0.58 0.52 0.71 0.79 0.71 0.62 0.57 0.51 0.50 0.52 0.59 0.57 0.56 0.54 0.51 0.54 0.52 0.50 0.47 0.47 0.48 0.49 0.50 0.50 0.51 0.53 0.55 0.58 0.65 0.74 0.74 0.75 0.80 0.87 0.92 0.96 0.99 1.01 1.02 1.02 1.02 1.06 1.09 1.06
0.60 0.58 0.69 0.73 0.57 0.49 0.46 0.45 0.48 0.45 0.43 0.43 0.44 0.47 0.51 0.51 0.51 0.51 0.50 0.48 0.50 0.52 0.52 0.53 0.55 0.57 0.60 0.58 0.60 0.63 0.66 0.71 0.76 0.77 0.80 0.83 0.87 0.93 0.97 1.00 1.03 1.08 1.11 1.21
0.62 0.73 0.89 0.83 0.59 0.66 0.58 0.47 0.44 0.43 0.41 0.39 0.38 0.40 0.41 0.44 0.49 0.49 0.52 0.52 0.51 0.51 0.49 0.48 0.50 0.54 0.58 0.60 0.60 0.61 0.64 0.70 0.78 0.80 0.79 0.81 0.85 0.90 0.92 0.95 1.01 1.09 1.11 1.19